Weather History for Fullerton, CA

Change the Weather History Date:

Wednesday, January 2, 2013

  Actual Average Record
Temperature  
Mean Temperature 57 °F 56 °F  
Max Temperature 72 °F 68 °F 84 °F (2012)
Min Temperature 41 °F 44 °F 38 °F (1999)
Degree Days  
Heating Degree Days 8 9  
Month to date heating degree days 19 18  
Since 1 July heating degree days 278 458  
Cooling Degree Days 0 0  
Month to date cooling degree days 0 0  
Year to date cooling degree days 0 0  
Growing Degree Days 6 (Base 50)    
Moisture  
Dew Point 26 °F    
Average Humidity 37    
Maximum Humidity 62    
Minimum Humidity 12    
Precipitation  
Precipitation 0.00 in 0.12 in 0.60 in (2006)
Month to date precipitation 0.00 0.23  
Year to date precipitation 0.00 0.23  
Since 1 July precipitation 3.31 4.46  
Snow  
Snow 0.00 in - - ()
Month to date snowfall 0.0  
Year to date snowfall 0.0  
Since 1 July snowfall 0.0  
Snow Depth 0.00 in    
Sea Level Pressure  
Sea Level Pressure 30.07 in    
Wind  
Wind Speed 3 mph (NNW)    
Max Wind Speed 16 mph    
Max Gust Speed 24 mph    
Visibility 10 miles    
Events      
T = Trace of Precipitation, MM = Missing Value Source: NWS Daily Summary

Daily Weather History Graph

Daily Weather History Graph

Search for Another Location

Airport:

Trip Planner

Search our weather history database for the weather conditions in past years. The results will help you decide how hot, cold, wet, or windy it might be!

Date:

Astronomy

Jan. 02, 2013 Rise Set
Actual Time 6:57 AM PST 4:55 PM PST
Civil Twilight 6:29 AM PST 5:22 PM PST
Nautical Twilight 5:58 AM PST 5:53 PM PST
Astronomical Twilight 5:28 AM PST 6:24 PM PST
Moon 10:15 PM PST (1/2) 9:56 AM PST (1/2)
Length of Visible Light 10h 53m
Length of Day
9h 57m
Waning Gibbous, 74% of the Moon is Illuminated
Jan 2
Waning Gibbous
Jan 4
Last Quarter
Jan 11
New
Jan 18
First Quarter
Jan 26
Full

Hourly Weather History & Observations

Time (PST) Temp. Windchill Dew Point Humidity Pressure Visibility Wind Dir Wind Speed Gust Speed Precip Events Conditions
12:53 AM 44.1 °F - 28.9 °F 55% 30.13 in 10.0 mi Calm Calm - N/A   Clear
1:53 AM 43.0 °F - 30.0 °F 60% 30.12 in 10.0 mi Calm Calm - N/A   Clear
2:53 AM 43.0 °F - 28.9 °F 58% 30.10 in 10.0 mi Calm Calm - N/A   Clear
3:53 AM 42.1 °F - 28.9 °F 60% 30.08 in 10.0 mi Calm Calm - N/A   Clear
4:53 AM 45.0 °F - 24.1 °F 44% 30.07 in 10.0 mi Calm Calm - N/A   Clear
5:53 AM 57.0 °F - 15.1 °F 19% 30.06 in 10.0 mi ENE 10.4 mph 18.4 mph N/A   Clear
6:53 AM 48.0 °F - 24.1 °F 39% 30.07 in 10.0 mi Calm Calm - N/A   Clear
7:53 AM 57.0 °F - 17.1 °F 21% 30.07 in 10.0 mi ENE 3.5 mph - N/A   Clear
8:53 AM 57.9 °F - 25.0 °F 28% 30.09 in 10.0 mi West 3.5 mph - N/A   Clear
9:53 AM 64.9 °F - 21.0 °F 19% 30.09 in 10.0 mi WNW 3.5 mph - N/A   Clear
10:53 AM 64.9 °F - 21.9 °F 19% 30.09 in 10.0 mi NNW 4.6 mph - N/A   Clear
11:53 AM 66.9 °F - 21.0 °F 17% 30.06 in 10.0 mi WNW 6.9 mph - N/A   Clear
12:53 PM 69.1 °F - 19.9 °F 15% 30.04 in 10.0 mi Variable 3.5 mph - N/A   Clear
1:53 PM 71.1 °F - 19.9 °F 14% 30.03 in 10.0 mi Calm Calm - N/A   Clear
3:53 PM 68.0 °F - 25.0 °F 20% 30.03 in 10.0 mi SSW 3.5 mph - N/A   Clear
4:53 PM 64.9 °F - 24.1 °F 21% 30.03 in 10.0 mi West 4.6 mph - N/A   Clear
5:53 PM 60.1 °F - 28.9 °F 31% 30.04 in 10.0 mi Calm Calm - N/A   Clear
6:53 PM 57.0 °F - 33.1 °F 40% 30.05 in 10.0 mi NW 3.5 mph - N/A   Clear
8:53 PM 52.0 °F - 33.1 °F 49% 30.05 in 10.0 mi East 4.6 mph - N/A   Clear
9:53 PM 50.0 °F - 30.9 °F 48% 30.05 in 10.0 mi Calm Calm - N/A   Clear
10:53 PM 48.0 °F - 32.0 °F 54% 30.06 in 10.0 mi Calm Calm - N/A   Clear
11:53 PM 44.1 °F 42.5 °F 32.0 °F 63% 30.06 in 10.0 mi East 3.5 mph - N/A   Clear